Starlink 32223

operational
NORAD ID: 60373 Int'l Des: 2024-138 Owner: SPXS Country: US Constellation: starlink
LEOCIRCULAR

Über Starlink 32223

Beschreibung wird geladen...

Live-Position

3D-Globus wird geladen...

Nächste Überflüge

Höhenverlauf

Altitude vs Time

uPlot chart will show altitude changes over time

Zweizeiliger Elementsatz

1 60373U 24138U 25260.65208996 .00000599 00000-0 32341-4 0 9997
2 60373 53.1605 33.4245 0001156 60.5501 299.5615 15.30195672 64031
Epoch: 17. Sept. 2025 • Age: 25 hours

Aktueller Status

Höhe 477.2 km
Geschwindigkeit 7.63 km/s
Subsatellitenpunkt -7.63°S, 134.65°E
Startdatum 4. Aug. 2024
Alter 1.1 years
Typ internet

Technische Details

Klassifizierung Payload
Masse 730.00 kg
Trockenmasse 700.00 kg
Gesamtmasse 730.00 kg
Länge 0.30 m
Durchmesser 4.10 m
Spannweite 29.00 m
Form Box + pan
Hersteller SPXS
Bus-Typ Starlink V2M
Phasenstatus In Orbit
Besitzer/Staat SPXS/US

Große Konstellationen

Loading constellations...